DB0LC-2 Weather Reports


Display with metric or nautical units.
time (UTC)temp
F
wind
direction
speed
MPH
gust
MPH
rain 1hr
in
rain 24hr
in
rain mn
in
humidity
%
barometer
mb
20260507083537 67 0 0.0 0.0 0.00 0.00 0.00 33 910.4
20260507082516 66 0 0.0 0.0 0.00 0.00 0.00 33 910.3
20260507082513 66 0 0.0 0.0 0.00 0.00 0.00 33 910.3
20260507075412 68 0 0.0 0.0 0.00 0.00 0.00 33 910.1
20260507074407 67 0 0.0 0.0 0.00 0.00 0.00 33 910.3
20260507073336 67 0 0.0 0.0 0.00 0.00 0.00 33 910.1
20260507072326 66 0 0.0 0.0 0.00 0.00 0.00 33 910.1
20260507071259 67 0 0.0 0.0 0.00 0.00 0.00 31 909.9
20260507065210 68 0 0.0 0.0 0.00 0.00 0.00 33 909.8
20260507064157 67 0 0.0 0.0 0.00 0.00 0.00 33 909.7
20260507063132 67 0 0.0 0.0 0.00 0.00 0.00 33 909.6
20260507062118 66 0 0.0 0.0 0.00 0.00 0.00 33 909.6
20260507061107 68 0 0.0 0.0 0.00 0.00 0.00 30 909.5
20260507060059 68 0 0.0 0.0 0.00 0.00 0.00 32 909.3
20260507055043 68 0 0.0 0.0 0.00 0.00 0.00 33 909.4
20260507054020 67 0 0.0 0.0 0.00 0.00 0.00 33 909.3
20260507052954 67 0 0.0 0.0 0.00 0.00 0.00 33 909.3
20260507051933 66 0 0.0 0.0 0.00 0.00 0.00 32 909.2
20260507051931 66 0 0.0 0.0 0.00 0.00 0.00 32 909.2
20260507050912 68 0 0.0 0.0 0.00 0.00 0.00 32 908.9
20260507045905 68 0 0.0 0.0 0.00 0.00 0.00 32 908.9
20260507044829 68 0 0.0 0.0 0.00 0.00 0.00 32 908.7
20260507042815 67 0 0.0 0.0 0.00 0.00 0.00 33 908.6
20260507041806 66 0 0.0 0.0 0.00 0.00 0.00 33 908.6
20260507034727 67 0 0.0 0.0 0.00 0.00 0.00 33 908.3
20260507032702 66 0 0.0 0.0 0.00 0.00 0.00 33 908.1
20260507031702 67 0 0.0 0.0 0.00 0.00 0.00 30 908.2
20260507030637 68 0 0.0 0.0 0.00 0.00 0.00 33 908.1
20260507025625 68 0 0.0 0.0 0.00 0.00 0.00 33 908.1
20260507024602 67 0 0.0 0.0 0.00 0.00 0.00 33 908.1
20260507022524 66 0 0.0 0.0 0.00 0.00 0.00 33 908.1
20260507021450 68 0 0.0 0.0 0.00 0.00 0.00 32 908.0
20260507020422 68 0 0.0 0.0 0.00 0.00 0.00 32 907.9
20260507014300 67 0 0.0 0.0 0.00 0.00 0.00 33 907.8
20260507014259 67 0 0.0 0.0 0.00 0.00 0.00 33 907.6
20260507013234 66 0 0.0 0.0 0.00 0.00 0.00 32 907.7
20260507012246 68 0 0.0 0.0 0.00 0.00 0.00 31 907.7
20260507011213 68 0 0.0 0.0 0.00 0.00 0.00 32 907.5
20260507005158 67 0 0.0 0.0 0.00 0.00 0.00 33 907.7
20260507004159 67 0 0.0 0.0 0.00 0.00 0.00 33 907.6
20260507004157 67 0 0.0 0.0 0.00 0.00 0.00 33 907.5
20260507003132 66 0 0.0 0.0 0.00 0.00 0.00 33 907.5
20260507002131 68 0 0.0 0.0 0.00 0.00 0.00 29 907.7
20260507001121 68 0 0.0 0.0 0.00 0.00 0.00 32 907.6
20260507000059 68 0 0.0 0.0 0.00 0.00 0.00 33 907.7
20260506234018 67 0 0.0 0.0 0.00 0.00 0.00 33 907.8
20260506232957 66 0 0.0 0.0 0.00 0.00 0.00 32 907.9
20260506231918 68 0 0.0 0.0 0.00 0.00 0.00 33 907.7
20260506230909 68 0 0.0 0.0 0.00 0.00 0.00 33 907.6
20260506230907 68 0 0.0 0.0 0.00 0.00 0.00 33 907.7
20260506225840 67 0 0.0 0.0 0.00 0.00 0.00 33 907.6
20260506224831 67 0 0.0 0.0 0.00 0.00 0.00 33 907.6
20260506223808 66 0 0.0 0.0 0.00 0.00 0.00 33 907.6
20260506222726 68 0 0.0 0.0 0.00 0.00 0.00 31 907.6
20260506221700 68 0 0.0 0.0 0.00 0.00 0.00 32 907.6
20260506220639 68 0 0.0 0.0 0.00 0.00 0.00 33 907.5
20260506215637 67 0 0.0 0.0 0.00 0.00 0.00 33 907.6
20260506213553 68 0 0.0 0.0 0.00 0.00 0.00 31 907.4
20260506212523 68 0 0.0 0.0 0.00 0.00 0.00 33 907.6
20260506211435 68 0 0.0 0.0 0.00 0.00 0.00 33 907.5
20260506210411 67 0 0.0 0.0 0.00 0.00 0.00 33 907.3
20260506205331 67 0 0.0 0.0 0.00 0.00 0.00 33 907.3
20260506204321 68 0 0.0 0.0 0.00 0.00 0.00 30 907.3
20260506203320 68 0 0.0 0.0 0.00 0.00 0.00 33 907.3
20260506203318 68 0 0.0 0.0 0.00 0.00 0.00 33 907.2
20260506202242 68 0 0.0 0.0 0.00 0.00 0.00 33 907.2
20260506201212 67 0 0.0 0.0 0.00 0.00 0.00 33 907.2
20260506200142 67 0 0.0 0.0 0.00 0.00 0.00 34 907.2
20260506195140 67 0 0.0 0.0 0.00 0.00 0.00 30 907.1
20260506194144 68 0 0.0 0.0 0.00 0.00 0.00 33 907.0
20260506193128 68 0 0.0 0.0 0.00 0.00 0.00 33 907.0
20260506192117 67 0 0.0 0.0 0.00 0.00 0.00 33 906.8
20260506191052 67 0 0.0 0.0 0.00 0.00 0.00 33 906.7
20260506190030 67 0 0.0 0.0 0.00 0.00 0.00 32 906.5
20260506183943 68 0 0.0 0.0 0.00 0.00 0.00 33 906.3
20260506182913 67 0 0.0 0.0 0.00 0.00 0.00 33 906.3
20260506181815 66 0 0.0 0.0 0.00 0.00 0.00 33 906.0
20260506180748 68 0 0.0 0.0 0.00 0.00 0.00 32 905.9
20260506175724 68 0 0.0 0.0 0.00 0.00 0.00 33 906.1
20260506174723 67 0 0.0 0.0 0.00 0.00 0.00 33 906.0
20260506173659 67 0 0.0 0.0 0.00 0.00 0.00 33 905.7
20260506172647 67 0 0.0 0.0 0.00 0.00 0.00 32 905.8
20260506170558 68 0 0.0 0.0 0.00 0.00 0.00 33 905.7
20260506165520 67 0 0.0 0.0 0.00 0.00 0.00 33 905.6
20260506164443 67 0 0.0 0.0 0.00 0.00 0.00 33 905.7
20260506163357 67 0 0.0 0.0 0.00 0.00 0.00 32 905.7
20260506162329 68 0 0.0 0.0 0.00 0.00 0.00 33 905.2
20260506161251 67 0 0.0 0.0 0.00 0.00 0.00 33 905.5
20260506160226 67 0 0.0 0.0 0.00 0.00 0.00 34 905.3
20260506155140 67 0 0.0 0.0 0.00 0.00 0.00 32 905.5
20260506153126 68 0 0.0 0.0 0.00 0.00 0.00 33 905.1
20260506152038 67 0 0.0 0.0 0.00 0.00 0.00 33 904.8
20260506150949 67 0 0.0 0.0 0.00 0.00 0.00 33 904.9
20260506145858 68 0 0.0 0.0 0.00 0.00 0.00 33 905.0
20260506144823 68 0 0.0 0.0 0.00 0.00 0.00 33 904.5
20260506141734 67 0 0.0 0.0 0.00 0.00 0.00 33 904.5
20260506141732 67 0 0.0 0.0 0.00 0.00 0.00 33 904.4
20260506140706 67 0 0.0 0.0 0.00 0.00 0.00 32 904.4
20260506135632 68 0 0.0 0.0 0.00 0.00 0.00 32 903.8
20260506134605 68 0 0.0 0.0 0.00 0.00 0.00 32 903.4
20260506133527 67 0 0.0 0.0 0.00 0.00 0.00 33 903.3
20260506132515 67 0 0.0 0.0 0.00 0.00 0.00 33 903.3
20260506131516 67 0 0.0 0.0 0.00 0.00 0.00 31 903.4
20260506130458 68 0 0.0 0.0 0.00 0.00 0.00 32 903.3
20260506124430 67 0 0.0 0.0 0.00 0.00 0.00 33 903.2
20260506123426 67 0 0.0 0.0 0.00 0.00 0.00 31 903.4
20260506121402 68 0 0.0 0.0 0.00 0.00 0.00 32 903.4
20260506120410 67 0 0.0 0.0 0.00 0.00 0.00 32 903.4
20260506115350 67 0 0.0 0.0 0.00 0.00 0.00 32 903.4
20260506114353 68 0 0.0 0.0 0.00 0.00 0.00 31 903.0
20260506113338 68 0 0.0 0.0 0.00 0.00 0.00 32 902.9
20260506112339 67 0 0.0 0.0 0.00 0.00 0.00 32 902.8
20260506111317 67 0 0.0 0.0 0.00 0.00 0.00 33 903.0
20260506105252 68 0 0.0 0.0 0.00 0.00 0.00 32 903.1
20260506104230 68 0 0.0 0.0 0.00 0.00 0.00 32 903.3
20260506103200 67 0 0.0 0.0 0.00 0.00 0.00 32 903.3
20260506102148 67 0 0.0 0.0 0.00 0.00 0.00 32 903.5
20260506101139 66 0 0.0 0.0 0.00 0.00 0.00 32 903.5
20260506100136 68 0 0.0 0.0 0.00 0.00 0.00 32 903.3
20260506095137 67 0 0.0 0.0 0.00 0.00 0.00 32 903.3
20260506094137 67 0 0.0 0.0 0.00 0.00 0.00 32 903.4
20260506091100 67 0 0.0 0.0 0.00 0.00 0.00 32 903.3
20260506091059 67 0 0.0 0.0 0.00 0.00 0.00 32 903.4
20260506090035 67 0 0.0 0.0 0.00 0.00 0.00 32 903.5
20260506085010 67 0 0.0 0.0 0.00 0.00 0.00 31 903.5
20260506083959 68 0 0.0 0.0 0.00 0.00 0.00 32 903.6